Powrót do katalogu

DELTA 1 DEB

AktywnySSO
NORAD 12825·DEBRIS·🇺🇸 United States

Wystrzelony Mar 5, 1978 z Vandenberg Space Force Base

Loading…

Następne Przeloty (najbliższe 24 godziny)

TLE

ŚwieżeSource: Space-Track

Epoka: Sep 13, 2026, 03:29 UTC

1 12825U 78026EW  26256.14563163 -.00000024  00000-0  16690-4 0  9994
2 12825  99.3475 133.0564 0059153 263.3611 251.0320 13.94962617317220

Śledź DELTA 1 DEB w czasie rzeczywistym z AllMySat

Download on the App Store